Track DEMOSAT/FALCON 1 now! 10-day predictions DEMOSAT/FALCON 1 is classified as:
1 33393U 08048A 25191.45856823 .00002294 00000-0 14410-3 0 9990 2 33393 9.3441 150.5639 0010399 149.5162 210.5643 14.94438597911672